Simultaneous Nadir Overpasses (SNOs) Predictions

Prediction of SNOs between LANDSAT-8 and NOAA-19 Satellite Orbit:

Table of predicted SNOs for the next 14.0 days since TLE Epoch: 3/17/2018
Index Date (LANDSAT-8) Time (LANDSAT-8) Lat,Lon (LANDSAT-8) SZA (LANDSAT-8 ) Date (NOAA-19) Time (NOAA-19) Lat,Lon (NOAA-19) SZA (NOAA-19 ) Distance(km) Time Diff (sec)
1 03/17/2018 12:23:11 -77.31,-173.32 101.31 03/17/2018 12:22:32 -77.33,-173.24 101.29 2.80 39
2 03/17/2018 13:12:37 77.30, -5.72 78.67 03/17/2018 13:13:35 77.27, -5.71 78.65 3.84 58
3 03/19/2018 17:56:53 77.34, -76.66 77.85 03/19/2018 17:56:15 77.34, -76.64 77.85 0.50 38
4 03/19/2018 18:46:20 -77.31, 90.86 102.20 03/19/2018 18:47:09 -77.29, 90.88 102.21 2.11 49
5 03/21/2018 23:30:36 -77.34, 19.92 103.02 03/21/2018 23:29:48 -77.34, 20.05 103.03 3.18 48
6 03/22/2018 00:20:02 77.33,-172.50 76.95 03/22/2018 00:20:53 77.33,-172.66 76.95 3.95 51
7 03/24/2018 05:04:18 77.35, 116.54 76.13 03/24/2018 05:03:32 77.36, 116.56 76.13 1.20 46
8 03/24/2018 05:53:46 -77.33, -75.92 103.92 03/24/2018 05:54:27 -77.34, -76.05 103.91 3.24 41
9 03/26/2018 10:38:02 -77.36,-146.88 104.75 03/26/2018 10:37:06 -77.39,-146.89 104.72 3.99 56
10 03/26/2018 11:27:28 77.34, 20.68 75.22 03/26/2018 11:28:10 77.32, 20.71 75.21 2.48 42
11 03/28/2018 16:11:44 77.36, -50.30 74.40 03/28/2018 16:10:50 77.40, -50.30 74.43 4.63 54
12 03/28/2018 17:01:12 -77.34, 117.25 105.64 03/28/2018 17:01:44 -77.36, 117.19 105.62 2.43 32
13 03/30/2018 21:45:27 -77.41, 46.45 106.41 03/30/2018 21:44:23 -77.41, 46.33 106.42 3.03 64




NCC Satellite Simultaneous Nadir Overpasses (SNOs) Prediction Service
